Regional Weather Roundup
Issued by NWS

Home | Current Version | Previous Version | Graphics & Text | Print | Product List | Glossary On
Versions: 1 2 3 4 5 6 7 8 9 10 11 12 13 14 15 16 17 18 19 20 21 22 23 24 25 26 27 28 29 30 31 32 33 34 35 36 37 38 39 40 41 42 43 44 45 46 47 48 49 50
000
ASUS45 KABQ 041201
RWRNM
NEW MEXICO REGIONAL WEATHER ROUNDUP
NATIONAL WEATHER SERVICE ALBUQUERQUE NM
600 AM MDT SAT JUL 04 2015

NOTE: "FAIR" MEANS FEW OR NO CLOUDS BELOW 12,000 FEET AGL WITH NO
       SIGNIFICANT WEATHER OR OBSTRUCTIONS TO VISION.

      THIS PRODUCT IS RELEASED AS TWO VERSIONS.  ONE VERSION NEAR
      THE TOP OF THE HOUR CONTAINING PRELIMINARY DATA FROM ALBUQUERQUE
      AND OTHER STATIONS.  A FINAL VERSION WITH ADDITIONAL DATA IS
      ISSUED ABOUT 10 MINUTES AFTER THE HOUR.

NMZ501-503-504-510>518-041300-
NORTHWEST PLATEAU/NORTHCENTRAL MOUNTAINS

CITY           SKY/WX    TMP DP  RH WIND       PRES   REMARKS
FARMINGTON     CLEAR     61  51  70 E9        30.15R
6HR MIN TEMP:  59; 6HR MAX TEMP:  68;

SANTA FE       CLEAR     62  53  72 E5        30.21S
6HR MIN TEMP:  62; 6HR MAX TEMP:  69;

TAOS           PTCLDY    52  41  66 N3        30.29S
ANGEL FIRE     FAIR      46  45  96 CALM      30.36F

$$
NMZ402-403-502-505>509-041300-
WESTCENTRAL MOUNTAINS/SOUTHWEST MOUNTAINS

CITY           SKY/WX    TMP DP  RH WIND       PRES   REMARKS
GALLUP         PTCLDY    62  52  69 NE5       30.21R
6HR MIN TEMP:  61; 6HR MAX TEMP:  68;

GRANTS         CLEAR     58  55  92 CALM      30.24R
SILVER CITY      N/A     66  61  82 NW3       30.16R

$$
NMZ407-409-411-412-041300-
SOUTHERN DESERTS

CITY           SKY/WX    TMP DP  RH WIND       PRES   REMARKS
LORDSBURG      FAIR      68  57  68 SE7       30.06R
DEMING         PTCLDY    68  66  93 NE6       30.07R
6HR MIN TEMP:  68; 6HR MAX TEMP:  71; 6HR PCP:  0.07;

ALAMOGORDO     PTCLDY    64  57  77 SE5       30.07S
T OR C         CLEAR     69  61  75 NW5       30.10R
6HR MIN TEMP:  68; 6HR MAX TEMP:  78;


$$
NMZ519>523-041300-
CENTRAL VALLEYS/CENTRAL HIGHLANDS

CITY           SKY/WX    TMP DP  RH WIND       PRES   REMARKS
ALBUQUERQUE    MOCLDY    71  56  58 NW3       30.15S
6HR MIN TEMP:  70; 6HR MAX TEMP:  75;

DOUBLE EAGLE   PTCLDY    63  57  82 CALM      30.19R
MORIARTY ARPT    N/A     55  52  90 CALM      30.23S
6HR MIN TEMP:  55; 6HR MAX TEMP:  65;

CLINES CORNERS PTCLDY    56  53  90 E5        30.25F
6HR MIN TEMP:  56; 6HR MAX TEMP:  62;

BELEN          FAIR      64  55  73 CALM      30.14S
6HR MIN TEMP:  64; 6HR MAX TEMP:  74;

SOCORRO        NOT AVBL

$$
NMZ524>526-539-540-041300-
SOUTHCENTRAL MOUNTAINS

CITY           SKY/WX    TMP DP  RH WIND       PRES   REMARKS
RUIDOSO        NOT AVBL

$$
NMZ527>531-041300-
NORTHEAST HIGHLANDS/NORTHEAST PLAINS

CITY           SKY/WX    TMP DP  RH WIND       PRES   REMARKS
LAS VEGAS      FOG       58  57  97 S13       30.25F VSB 3/4
6HR MIN TEMP:  54; 6HR MAX TEMP:  59;

RATON          CLOUDY    60  58  92 S5        30.20S
6HR MIN TEMP:  58; 6HR MAX TEMP:  62;

CLAYTON        CLEAR     62  58  86 SW13      30.10F
6HR MIN TEMP:  61; 6HR MAX TEMP:  64;


$$
NMZ532>537-041300-
EASTCENTRAL PLAINS

CITY           SKY/WX    TMP DP  RH WIND       PRES   REMARKS
TUCUMCARI      PTCLDY    63  58  83 W9        30.07F
6HR MIN TEMP:  63; 6HR MAX TEMP:  69;

CANNON AFB     NOT AVBL
CLOVIS AIRPORT MOCLDY    64  59  82 W6          N/A

$$
NMZ028-029-538-041300-
SOUTHEAST PLAINS

CITY           SKY/WX    TMP DP  RH WIND       PRES   REMARKS
ROSWELL        MOCLDY    67  61  81 CALM      30.06S
6HR MIN TEMP:  66; 6HR MAX TEMP:  71;

ARTESIA        PTCLDY    66  61  82 CALM      30.07R
CARLSBAD       CLEAR     67  62  84 CALM      30.03R
6HR MIN TEMP:  67; 6HR MAX TEMP:  74;

HOBBS          CLEAR     64  64 100 CALM      30.08S


$$


USA.gov is the U.S. government's official web portal to all federal, state and local government web resources and services.